Theta_e
327 327 328 329 330 331 333 335 335 335 337 339 340 341 342 343 345 348 349 349 349 349 351 352 351 351 351 352 352 353 352 352 351 351 351 352 351 351 350 350 349 350 350 349 349 349 349 350 349 349 348 347 344 344 343 342 338 340 338 339 339 339 338
325 327 328 329 330 330 332 334 335 336 336 339 340 341 342 343 344 346 349 350 350 350 351 352 353 351 351 351 353 353 352 352 353 353 352 352 353 352 352 351 350 349 350 350 350 350 349 350 349 349 347 347 345 344 343 340 336 338 338 338 338 337 337
325 326 328 329 330 331 331 333 335 336 336 338 340 341 341 342 344 346 348 350 350 350 351 352 354 353 352 352 351 353 354 353 353 353 352 352 352 352 352 351 351 350 350 350 349 350 350 349 349 349 348 346 346 345 343 339 336 337 338 337 338 337 336
325 325 327 329 330 332 332 333 334 335 336 338 340 341 341 342 344 346 348 350 350 350 350 351 353 354 354 352 351 352 353 354 354 354 354 353 352 353 352 351 351 350 349 349 349 351 350 349 349 348 352 346 346 345 343 339 336 335 337 337 337 337 336
326 327 327 328 330 331 332 333 334 335 336 338 341 342 342 343 345 346 347 350 351 350 351 352 353 354 355 355 353 353 353 354 355 355 355 355 354 353 352 350 351 350 350 350 350 351 350 348 348 348 348 347 345 343 342 339 336 336 336 336 336 336 335
326 326 327 327 329 331 332 334 335 336 336 337 340 341 342 343 345 345 347 349 351 352 352 352 353 354 354 355 355 355 355 355 356 356 356 355 354 353 352 350 351 350 350 350 351 350 350 348 348 348 347 346 345 342 341 338 336 337 336 335 335 336 335
326 327 327 328 329 330 332 334 335 336 337 338 340 342 343 344 344 346 347 349 351 351 351 352 353 354 354 356 356 356 355 355 355 356 356 356 355 353 352 351 351 351 351 351 351 350 349 348 348 348 347 345 345 341 339 338 337 337 337 335 334 335 335
326 326 328 328 329 330 332 333 335 336 338 339 339 342 343 344 345 346 347 349 351 352 352 352 353 354 354 355 356 356 356 356 356 356 356 356 355 353 352 352 351 352 352 350 350 351 349 348 348 348 347 345 343 342 339 338 337 338 337 335 334 333 336
326 327 328 329 329 330 332 333 335 336 337 338 339 342 343 344 345 346 347 349 351 352 352 354 354 355 355 355 356 356 357 357 356 356 356 355 355 354 353 352 352 352 352 351 351 351 350 348 348 347 347 345 343 342 340 338 338 338 337 336 335 334 334
325 326 327 329 330 331 331 333 335 336 337 338 340 341 343 344 346 347 348 349 351 351 353 354 355 356 356 355 356 356 357 357 357 356 356 355 355 355 354 353 353 353 352 352 352 350 351 349 348 347 346 344 342 341 341 339 338 338 338 337 336 334 334
325 327 327 328 329 330 330 331 333 336 337 338 340 342 343 344 345 346 348 350 351 352 354 355 356 356 356 356 356 356 356 356 356 356 355 355 355 355 355 354 353 353 352 352 352 351 350 349 347 347 346 344 342 341 340 340 339 338 338 338 337 336 335
325 326 327 328 329 329 329 330 333 335 337 338 340 342 343 344 345 346 348 350 352 353 354 355 357 357 356 356 356 355 356 356 356 355 355 355 355 355 355 355 354 353 353 352 352 352 351 349 347 346 346 345 343 342 341 341 340 339 338 338 337 337 336
325 326 326 327 328 329 329 329 331 333 336 338 340 342 344 344 345 346 347 349 352 354 355 355 356 357 356 356 356 355 355 356 356 356 355 355 355 355 355 355 354 354 353 353 352 351 350 349 348 346 345 345 344 343 342 341 340 340 339 338 337 337 336
329 325 326 326 327 327 327 329 331 333 335 337 339 342 344 345 346 346 347 348 350 353 355 356 356 356 356 356 355 355 355 356 356 356 356 356 356 355 355 355 354 353 353 353 352 351 350 349 348 347 345 344 344 343 343 341 340 340 339 339 337 337 336
321 322 323 324 325 326 327 329 331 332 335 337 338 340 343 344 345 346 347 348 350 352 354 356 356 356 356 355 355 355 356 356 356 357 356 356 355 355 354 354 354 354 353 353 352 352 351 351 349 348 346 344 343 343 342 341 340 340 339 338 337 337 336
321 322 323 323 324 325 327 329 332 333 334 336 337 339 341 344 344 345 346 347 349 351 353 355 355 355 355 355 355 356 356 356 356 356 356 356 355 355 354 354 354 353 353 352 352 352 351 350 350 348 347 345 343 342 342 341 341 336 328 332 339 337 337
322 323 323 324 325 325 327 329 332 333 334 335 337 339 341 343 345 346 346 347 348 350 352 354 354 355 355 355 356 356 356 356 356 356 355 355 355 355 354 354 353 353 352 352 352 351 351 350 349 348 348 346 344 343 342 342 341 329 326 328 331 337 337
322 322 323 324 325 325 326 328 332 333 334 336 338 339 341 343 344 345 346 346 347 349 351 352 353 354 354 355 356 356 355 355 355 355 355 355 355 355 354 354 353 352 351 351 351 351 351 349 349 349 348 347 345 344 343 342 332 326 325 327 328 332 339
323 323 324 325 325 326 327 329 332 334 335 337 338 340 342 344 345 345 346 346 347 349 350 351 352 353 354 355 355 355 355 355 355 354 354 354 355 355 354 353 352 351 350 350 351 351 350 349 349 348 348 347 345 344 344 343 331 325 324 326 326 328 335
328 327 326 326 327 327 329 331 333 335 336 337 339 341 343 345 346 347 348 348 348 347 348 350 351 352 353 354 355 355 355 355 354 354 354 354 355 355 354 353 352 352 351 351 351 350 350 349 348 348 348 347 346 345 345 344 330 324 322 323 324 326 331
322 326 329 328 328 329 329 331 333 335 336 337 339 340 342 343 346 347 348 348 347 347 348 349 350 351 353 353 354 355 355 354 354 353 353 354 354 354 354 353 353 352 351 351 351 350 350 349 348 348 348 347 347 345 345 345 328 321 320 320 321 324 328
324 324 325 327 329 330 332 333 333 334 336 339 340 341 341 341 344 346 347 348 348 347 347 348 349 351 352 352 354 355 355 354 354 353 353 353 353 353 353 353 353 352 352 351 351 352 352 351 350 348 348 347 346 345 344 345 322 319 319 319 320 323 333
318 320 320 325 332 333 334 336 337 338 338 339 340 341 341 342 342 344 347 348 348 347 347 347 348 349 351 352 353 354 355 355 354 353 353 353 352 352 353 353 353 353 353 351 351 351 351 351 350 349 348 347 346 345 344 341 321 318 316 317 319 322 335
313 312 317 323 329 333 335 336 339 341 341 340 341 342 344 343 343 343 344 346 348 347 347 346 346 348 350 351 352 354 355 355 355 353 353 352 352 352 353 354 355 354 353 351 351 351 351 352 351 349 348 346 345 345 343 339 320 315 315 316 317 324 335
320 316 311 320 328 331 334 337 339 342 347 346 343 345 346 345 344 343 343 345 346 347 346 346 346 347 348 349 351 353 355 356 355 355 353 353 352 353 353 354 354 355 354 353 352 351 352 351 349 348 347 346 346 340 341 334 320 313 315 316 316 325 336
331 333 338 315 328 335 335 338 339 339 342 345 345 346 347 347 345 344 344 344 346 346 345 346 347 348 348 349 350 351 353 355 355 355 354 354 353 353 354 354 355 354 353 353 352 351 350 348 348 346 344 343 343 342 339 333 327 320 313 314 314 319 335
338 341 343 344 341 334 335 338 339 339 340 343 346 348 349 348 346 344 343 344 345 344 346 347 348 348 347 347 348 349 351 354 355 355 355 355 355 355 354 354 354 354 353 352 350 348 346 345 345 343 340 340 340 339 336 335 330 324 312 312 313 315 323
333 336 341 346 344 331 324 334 340 340 340 341 343 346 348 349 347 345 344 344 343 345 347 347 347 347 346 346 346 347 350 353 355 356 356 356 356 355 354 355 355 354 353 351 347 345 343 341 340 339 337 337 337 336 334 335 329 328 314 312 311 311 317
331 330 333 339 341 341 329 331 337 341 341 344 347 347 347 346 346 346 345 344 345 347 347 347 347 345 345 345 345 346 349 352 353 355 357 357 357 356 354 354 353 352 349 346 345 343 341 340 339 337 335 334 333 333 334 333 330 321 322 311 309 308 312
340 339 335 338 342 340 341 337 338 341 341 344 345 346 347 347 345 344 343 344 348 348 348 347 347 346 344 344 345 347 349 352 354 356 358 357 356 355 353 352 351 348 346 344 343 341 339 337 336 334 333 332 331 331 332 332 328 319 317 315 309 308 309
336 336 337 338 340 343 341 338 337 336 339 342 342 343 343 344 344 343 342 345 347 347 348 348 349 350 347 347 349 351 354 356 357 357 357 356 355 352 350 348 346 343 341 341 339 338 336 334 334 333 331 330 330 329 329 329 326 323 319 316 311 309 308
334 334 334 335 335 338 343 346 341 339 336 335 336 338 339 341 342 340 340 347 351 355 356 355 352 352 352 352 354 355 357 356 356 355 355 354 353 351 350 347 344 341 339 338 337 336 334 332 332 331 331 329 329 329 328 325 323 321 319 318 313 311 308
332 332 332 331 334 336 336 336 335 334 335 334 335 338 341 341 341 341 342 346 350 353 357 357 356 353 354 355 356 357 356 355 352 351 350 350 349 348 346 344 342 339 337 336 334 333 332 331 331 331 330 330 329 328 327 325 323 320 318 316 314 314 316
331 330 331 331 333 334 333 333 332 333 334 334 335 337 338 340 340 341 342 345 352 355 353 353 354 355 356 356 356 355 354 352 353 349 346 345 345 343 341 340 340 337 335 335 334 333 332 331 331 330 330 330 330 328 327 325 323 321 319 317 316 317 320
333 332 331 331 332 333 332 332 331 331 332 332 334 336 336 337 338 340 340 341 342 346 350 350 350 352 354 353 352 351 350 349 347 345 342 334 322 320 330 337 337 333 327 323 331 335 333 332 331 332 333 333 331 329 327 326 325 325 317 320 314 318 322
332 334 333 333 334 333 333 333 332 331 331 330 331 332 334 335 335 337 339 339 340 340 339 338 339 341 342 344 346 345 345 342 338 333 330 327 321 317 311 306 303 316 330 323 314 318 322 321 332 334 335 334 333 332 330 329 330 314 308 305 305 307 311
332 333 335 332 331 332 333 334 334 332 332 331 331 331 332 333 336 335 337 337 338 339 337 338 337 336 336 336 334 332 334 334 332 332 330 328 326 322 319 316 309 296 297 303 306 305 306 310 313 318 324 333 330 317 314 315 307 304 303 302 302 304 304
333 334 336 337 335 333 332 333 333 331 331 331 332 330 329 331 335 336 338 337 336 336 335 336 334 332 332 332 331 330 329 330 329 328 327 326 325 324 323 321 318 313 300 296 300 299 297 300 307 308 312 316 320 319 318 306 302 301 301 302 302 303 302
Wind_Speed
20 20 19 19 19 19 20 21 21 20 20 19 20 21 20 18 19 18 18 19 21 19 18 18 18 17 17 15 15 14 14 13 11 12 11 11 10 10 10 9 10 10 9 10 10 11 10 10 10 10 9 9 9 8 8 8 7 7 8 8 7 7 8
19 19 20 19 19 20 21 21 21 20 19 19 19 21 19 20 19 18 19 20 21 22 20 19 18 17 18 16 14 14 14 14 13 12 11 10 9 9 10 10 10 10 10 10 10 9 9 10 11 10 10 10 10 9 8 8 8 8 8 8 8 7 7
18 18 19 18 19 19 20 19 20 20 20 19 19 19 20 21 20 21 19 19 19 19 18 19 19 18 16 16 15 15 15 14 13 13 13 12 12 12 10 10 10 10 11 10 10 10 9 10 10 10 11 10 10 9 9 8 8 8 8 9 8 8 8
17 18 19 21 21 21 22 21 22 21 20 21 21 22 22 22 20 19 19 20 21 19 20 18 18 17 16 16 16 15 16 15 15 14 14 13 12 11 10 10 9 9 9 10 10 10 10 10 11 11 11 11 10 9 9 10 9 8 8 8 8 8 9
19 19 18 18 19 18 18 19 20 21 21 22 23 23 22 21 20 17 17 18 20 22 22 22 18 17 16 17 14 14 16 16 15 14 13 12 11 11 12 12 11 11 12 11 10 10 10 11 11 11 11 10 10 9 10 9 9 9 8 8 8 8 8
19 18 17 18 18 19 19 20 22 23 22 21 21 20 18 19 18 20 20 19 19 19 19 19 19 18 17 16 15 14 14 15 15 14 13 12 12 12 12 13 12 12 12 13 11 11 12 12 12 12 12 11 11 11 10 10 10 9 9 8 8 8 8
20 19 18 19 19 19 20 21 21 21 20 20 20 18 18 18 20 20 19 19 20 21 20 20 19 19 17 16 16 17 17 17 15 15 13 12 13 13 12 12 12 13 12 11 12 11 12 12 13 13 12 12 12 12 11 11 11 9 9 9 8 8 9
20 18 19 19 18 18 19 19 20 19 18 16 16 16 18 18 19 19 20 20 20 19 19 21 20 19 18 16 16 18 18 17 15 14 13 14 13 13 13 12 13 13 11 13 13 12 13 13 12 12 13 13 13 12 12 12 11 10 9 10 10 9 7
20 21 21 21 21 20 19 18 18 18 19 18 19 19 20 19 19 20 21 20 19 20 21 20 20 18 17 17 17 19 17 17 16 15 15 15 14 15 14 13 13 12 13 13 12 12 12 13 13 13 14 13 13 12 12 12 12 10 10 10 11 11 10
20 18 19 19 18 18 17 17 16 15 16 17 16 16 19 19 19 19 19 19 18 21 21 19 18 17 17 17 18 18 17 17 16 17 16 16 15 16 15 14 13 12 13 13 12 13 12 12 13 13 14 14 13 13 13 12 12 11 11 12 12 12 12
17 18 19 19 20 19 17 15 14 15 17 18 17 18 18 18 19 18 18 18 19 19 19 18 17 17 17 18 18 18 18 18 17 17 17 17 15 17 16 15 14 13 14 13 13 13 12 12 12 13 14 14 15 14 14 14 13 13 12 11 11 12 12
17 19 19 20 20 18 16 15 15 15 16 16 17 17 17 17 18 18 17 19 18 16 16 18 17 18 18 17 18 18 19 18 17 18 19 18 17 17 17 15 14 14 13 14 14 13 13 14 13 13 15 15 14 14 14 13 13 13 13 13 12 12 11
14 16 18 20 19 17 14 13 17 17 17 17 17 17 17 18 18 18 17 17 17 16 17 17 16 17 18 18 18 17 19 18 18 18 18 18 17 16 15 15 15 15 15 14 14 14 14 14 15 13 14 14 13 14 14 14 13 13 13 12 12 12 11
13 14 16 15 14 15 15 16 17 17 17 18 17 17 17 18 18 19 18 18 18 17 17 15 17 18 18 18 18 18 19 18 18 17 17 16 16 15 15 15 15 15 14 13 14 15 15 15 15 13 12 13 13 13 12 12 12 12 12 11 12 11 10
7 8 9 9 13 14 15 16 16 17 18 18 18 17 17 16 16 15 15 16 17 17 19 18 18 18 18 18 19 19 18 17 15 15 15 16 16 16 16 16 15 14 13 13 14 13 14 14 13 12 13 12 13 12 11 12 12 11 12 12 12 11 11
13 13 10 8 9 12 14 17 17 16 17 17 16 16 16 15 16 17 18 18 18 19 19 17 18 19 19 19 20 18 17 16 15 15 15 16 17 17 16 16 15 15 15 15 15 14 13 12 12 13 14 14 13 12 11 11 10 13 18 16 12 11 10
14 17 17 19 17 17 17 17 16 16 17 17 17 18 17 17 18 17 18 18 18 19 18 18 18 18 19 20 18 17 16 16 16 15 16 17 16 16 16 17 15 15 15 14 14 14 13 13 13 14 14 14 13 13 12 11 11 18 18 18 18 12 10
10 10 15 17 17 16 13 12 14 16 17 17 18 18 17 16 16 16 17 17 18 18 17 18 18 19 19 19 16 16 17 17 16 16 17 16 17 17 17 16 15 15 14 14 14 13 12 13 15 15 13 12 13 13 13 12 15 17 18 18 19 16 11
8 12 14 16 17 16 15 15 15 16 17 16 17 16 17 17 15 16 18 18 19 17 17 19 19 19 19 17 17 17 18 17 17 17 16 17 17 16 15 16 16 15 14 15 14 12 13 15 15 14 13 13 14 14 14 13 15 17 19 19 19 19 15
9 10 8 10 13 16 17 14 13 15 17 17 18 19 19 18 20 20 19 18 15 15 17 18 17 18 18 17 17 17 17 17 18 17 18 17 16 15 16 16 17 15 14 13 12 13 14 14 15 13 13 14 14 14 13 14 15 19 19 19 19 19 17
8 7 12 12 9 8 10 15 18 18 16 16 17 16 15 14 15 14 14 13 14 16 17 17 18 18 17 17 17 17 17 17 18 18 17 17 16 16 16 16 15 14 14 13 14 14 15 15 15 14 13 13 13 13 13 14 17 18 18 18 20 20 18
13 11 11 11 14 15 13 12 12 14 16 16 15 14 14 16 17 16 16 15 17 17 17 17 18 18 17 17 18 18 18 18 18 18 17 17 16 17 17 16 16 16 13 12 12 12 12 11 12 13 14 13 13 13 15 11 14 17 19 20 20 21 13
1 2 5 5 6 9 12 13 13 12 10 10 11 12 14 16 15 15 14 14 15 16 17 16 17 17 18 18 19 19 19 19 19 18 18 17 17 18 17 16 16 14 11 12 13 13 13 13 14 13 13 13 13 15 13 5 13 18 19 19 21 16 10
2 4 4 5 7 9 8 9 12 14 13 14 14 16 16 16 15 15 15 16 16 16 16 16 17 17 18 19 19 20 19 19 19 19 18 17 18 19 17 15 13 13 13 14 14 14 14 14 12 10 11 12 13 12 8 6 11 19 19 20 20 17 12
6 2 5 7 6 8 10 11 13 12 10 11 13 14 14 13 14 15 16 16 17 17 18 18 19 18 19 20 20 19 19 19 19 18 18 18 18 16 16 16 15 13 11 12 12 13 11 10 10 9 8 9 9 9 9 6 10 17 19 19 19 16 10
1 3 3 3 6 8 10 10 10 9 11 13 17 17 16 16 17 19 19 19 18 19 19 20 20 20 20 20 19 17 17 17 18 17 17 18 17 15 16 13 12 13 13 13 11 10 9 9 9 9 7 6 7 8 8 8 8 12 17 19 19 19 11
1 2 3 2 4 6 7 6 8 12 14 14 14 10 8 8 10 12 13 14 15 19 22 21 20 20 20 18 17 17 17 16 17 18 18 16 16 14 13 12 13 13 13 12 9 8 7 8 7 7 6 7 7 8 7 8 9 11 17 18 19 18 13
4 6 6 2 2 4 5 6 8 9 9 8 4 4 6 11 13 14 15 14 15 17 17 16 18 18 18 16 16 17 18 18 16 17 14 13 12 12 13 12 13 13 13 10 9 10 9 7 7 7 7 6 7 7 7 9 14 10 14 17 16 16 15
8 6 4 4 3 2 4 5 6 8 9 7 6 6 6 5 9 12 14 17 20 19 17 16 16 16 14 13 14 15 17 17 17 15 12 13 15 15 14 12 12 10 10 10 10 10 10 9 8 8 7 6 6 6 7 7 9 14 12 13 14 16 15
10 10 9 8 3 3 0 4 3 5 3 1 1 4 6 9 9 9 6 9 11 12 15 17 17 15 12 11 11 12 12 13 15 15 14 15 14 13 13 12 11 11 11 11 12 11 10 8 8 8 9 8 7 6 6 6 6 8 14 13 15 14 16
8 9 9 9 11 11 8 2 5 5 7 10 10 9 5 2 3 1 2 4 3 3 5 7 4 3 9 12 12 12 12 12 13 14 14 15 16 14 13 12 13 11 10 11 10 11 10 9 9 9 9 8 8 7 6 6 5 5 8 13 15 16 15
12 12 12 12 14 14 9 11 13 14 13 13 13 10 8 7 5 5 1 2 5 5 7 7 3 2 6 9 11 13 13 13 12 12 13 14 13 14 14 15 14 13 12 11 11 11 11 10 9 9 9 9 8 7 6 5 5 4 3 3 7 7 10
9 9 10 12 11 10 12 12 13 14 14 15 13 11 9 9 8 6 3 5 2 3 7 8 9 8 6 8 9 11 13 15 13 12 13 13 12 12 11 11 11 12 12 12 12 11 11 10 10 10 9 9 7 6 6 6 6 5 4 3 4 4 7
9 10 9 9 9 10 12 14 13 14 14 12 10 10 10 10 9 8 8 6 3 7 6 7 10 11 9 8 8 10 12 14 20 19 13 13 14 13 11 10 11 12 11 11 12 13 12 11 11 10 10 9 8 8 7 7 6 7 8 7 6 6 6
7 7 8 10 10 11 10 10 12 11 13 10 8 9 9 9 8 8 10 9 7 3 8 10 10 10 11 12 9 8 9 12 14 14 14 12 10 8 7 11 12 11 6 1 4 11 12 10 9 8 8 10 10 10 8 7 8 9 7 10 12 12 10
9 8 9 7 6 7 9 9 8 7 7 5 5 8 7 6 5 4 6 7 8 9 10 9 8 9 8 6 4 6 9 9 10 12 14 16 16 15 12 16 16 9 9 6 7 10 14 14 9 9 9 8 7 7 11 10 7 11 14 14 15 15 16
11 9 8 8 8 9 7 5 3 7 5 3 1 2 7 9 8 7 6 6 9 12 10 7 6 8 9 9 9 7 4 4 6 8 9 11 13 14 15 12 13 18 16 11 9 11 13 10 15 16 12 11 7 2 6 10 13 16 15 16 15 15 14
10 10 9 8 7 5 5 5 4 2 1 1 1 2 4 2 3 2 3 6 9 11 14 11 8 8 5 8 7 10 7 6 6 6 9 9 9 11 13 13 13 11 15 16 13 14 13 12 10 13 14 14 13 9 2 6 13 16 16 16 16 15 15
Wind_Direction
187 189 191 189 189 190 191 192 191 191 191 191 191 191 188 187 188 184 186 185 188 186 186 184 185 185 188 191 192 193 195 195 194 195 197 199 196 189 187 187 181 185 183 186 191 191 188 181 185 185 182 184 183 180 185 187 189 187 184 183 175 178 185
190 193 192 191 190 192 192 192 191 192 192 191 191 189 188 189 187 186 187 187 187 186 185 186 186 188 188 189 191 193 194 196 195 196 198 200 198 195 191 188 187 186 187 189 187 188 180 185 183 184 184 186 192 188 186 187 185 184 181 179 176 181 182
191 190 191 191 191 191 192 192 193 193 193 191 190 188 190 191 188 187 185 185 187 187 185 187 187 188 188 187 188 194 196 196 197 196 197 199 198 196 192 188 190 187 189 185 182 183 183 182 185 184 184 188 192 191 191 190 189 183 180 176 179 180 184
193 190 188 190 192 192 191 190 192 195 194 191 188 190 192 191 188 187 184 184 184 184 185 188 187 187 187 187 190 193 197 199 198 198 199 199 196 195 190 190 189 187 184 187 184 182 183 182 184 185 186 188 191 193 192 196 191 186 180 175 182 184 186
198 195 189 189 193 192 193 192 193 194 195 192 191 191 190 189 185 184 186 186 184 186 187 185 186 187 187 187 188 192 196 198 200 200 200 199 195 193 194 191 189 188 188 185 183 181 182 183 186 186 189 187 190 191 195 195 193 186 182 177 180 186 188
198 196 193 191 191 192 193 195 195 195 194 191 191 191 189 184 183 185 187 184 188 190 187 185 185 184 186 188 188 191 193 200 201 200 198 196 192 195 198 196 191 189 187 189 183 185 183 184 187 188 189 190 190 193 195 192 194 185 184 181 184 183 188
197 195 194 193 193 192 194 196 196 196 193 191 188 186 183 182 185 188 185 187 187 186 187 187 186 185 187 185 189 187 192 197 198 199 196 196 197 198 199 197 194 193 190 183 191 184 186 187 189 189 191 189 192 193 193 192 191 189 182 186 189 189 191
195 194 198 195 193 191 196 196 195 194 192 189 181 180 183 185 187 186 187 190 188 187 187 187 187 188 186 187 187 189 191 195 197 195 193 196 198 201 200 199 197 194 186 192 193 187 188 189 189 191 191 192 195 195 195 193 190 188 185 188 192 196 194
197 195 197 198 194 194 195 191 191 190 188 184 183 183 183 185 187 189 191 188 187 187 191 188 187 185 185 186 187 190 191 192 193 191 193 196 199 202 201 200 197 192 192 193 193 192 191 189 189 191 192 194 195 195 197 194 192 190 188 191 193 196 200
198 198 201 198 197 196 195 193 189 184 184 184 182 181 184 188 190 192 190 188 187 192 189 186 186 185 186 187 189 189 190 192 191 189 192 197 200 203 203 200 198 194 196 194 191 193 195 191 190 191 194 196 196 197 197 195 195 193 193 194 195 198 202
194 196 196 196 196 197 196 188 178 183 185 185 184 184 186 187 190 190 190 188 190 192 185 185 183 185 187 187 187 189 192 193 190 190 193 198 200 203 202 201 198 197 198 193 196 195 192 196 193 194 196 199 198 197 198 198 195 195 196 198 198 200 202
195 195 193 195 197 196 188 179 182 186 186 185 183 183 185 188 190 191 189 191 190 185 184 186 185 186 185 187 188 191 194 193 191 192 194 197 200 201 201 201 199 198 199 196 196 193 196 195 195 198 200 201 199 198 199 198 197 197 198 199 199 202 204
199 195 198 196 195 193 183 179 182 186 187 184 184 183 184 186 189 190 189 188 185 185 184 185 185 185 186 187 190 191 195 194 195 193 194 196 199 199 200 202 201 199 200 198 197 194 196 198 199 201 200 202 200 201 199 198 198 199 200 200 199 201 203
205 205 202 197 194 187 182 183 185 185 184 185 187 187 186 187 188 188 188 186 185 183 183 185 186 186 188 188 191 193 195 197 196 194 194 195 197 198 200 202 203 203 200 196 199 199 198 198 201 201 200 202 203 203 199 199 200 202 201 200 199 200 204
181 219 222 200 194 192 188 186 190 189 184 185 186 185 186 187 190 189 188 187 185 183 186 185 185 187 188 190 193 196 195 195 196 195 194 194 195 198 200 202 204 203 199 197 201 203 203 201 198 197 203 206 204 202 200 201 203 201 197 196 199 200 202
173 179 188 212 214 203 195 194 192 187 183 185 183 183 184 187 189 189 188 189 187 188 187 181 187 187 189 193 197 194 192 193 193 194 193 193 196 198 200 201 202 202 202 200 201 202 201 199 198 200 204 205 204 201 202 205 205 202 197 194 194 196 199
177 176 184 190 197 203 202 198 190 184 183 182 183 186 187 189 191 191 191 189 188 189 185 183 187 190 191 196 195 190 190 191 195 192 194 196 197 198 199 201 201 202 203 201 199 200 199 197 199 204 206 204 201 202 205 207 207 199 194 194 193 191 196
190 192 183 188 196 200 202 198 188 184 184 184 187 189 189 190 189 189 193 191 192 190 184 185 188 191 195 196 190 189 190 194 193 193 196 194 198 199 199 200 201 202 201 200 199 199 196 198 203 206 204 204 203 206 207 210 208 196 190 190 192 192 195
213 195 195 192 188 187 187 187 188 189 187 187 190 189 192 187 186 193 195 193 195 186 183 188 190 192 195 193 190 191 191 192 192 196 195 197 198 198 197 199 202 202 199 202 199 195 198 202 203 205 204 202 204 209 209 215 204 192 188 188 189 193 195
192 187 190 195 192 188 185 184 188 189 188 190 192 192 192 187 189 195 195 195 188 183 188 189 191 193 195 193 193 193 191 191 194 195 197 197 196 195 197 199 203 201 199 199 197 199 202 204 204 203 201 204 206 210 210 215 197 189 185 184 186 193 197
188 199 181 179 191 208 200 189 184 187 193 197 195 195 191 191 195 194 192 187 185 190 190 192 192 194 194 194 195 193 191 192 194 196 196 194 194 195 198 200 200 199 199 197 198 200 203 204 205 204 202 203 205 207 212 218 193 181 178 180 186 194 199
185 189 196 193 186 185 182 187 196 196 198 198 195 193 189 191 195 192 193 187 189 191 194 193 193 194 191 194 195 195 193 192 195 196 194 193 193 195 198 197 196 199 195 194 199 204 206 207 206 205 204 203 200 206 217 212 168 172 173 180 186 192 198
216 212 187 196 179 186 184 191 193 203 210 208 198 191 195 198 194 193 188 187 193 193 196 195 196 196 193 196 196 196 195 193 193 193 192 192 192 196 196 195 196 196 188 194 198 200 202 205 206 206 202 199 200 208 215 168 165 167 173 180 187 186 200
167 186 239 218 198 199 203 198 204 203 199 197 197 197 197 195 192 191 189 191 192 193 197 197 201 199 197 199 198 198 195 194 192 192 191 190 194 195 194 192 191 192 187 193 196 200 203 204 204 201 202 199 205 206 194 168 164 168 174 181 185 186 194
335 327 179 205 195 209 208 203 196 192 185 180 193 207 204 197 192 190 195 196 194 193 194 199 203 201 201 203 200 198 195 193 193 192 190 191 195 191 189 190 190 188 183 194 197 202 201 195 196 196 194 201 200 178 172 147 170 173 174 181 184 187 196
5 325 26 186 211 201 202 204 198 196 194 196 205 204 197 192 188 190 195 199 195 193 197 201 203 202 203 203 199 196 194 193 192 191 190 192 190 189 190 186 182 182 187 193 194 195 190 184 186 182 178 160 152 158 157 148 158 178 176 183 184 190 188
213 191 158 139 187 207 197 195 194 200 199 203 208 204 191 187 189 199 207 204 201 199 199 201 202 203 205 202 196 193 192 192 192 191 192 189 185 185 182 181 183 181 184 185 177 167 162 168 166 152 147 149 146 146 151 152 155 180 185 186 188 190 188
20 356 343 348 232 187 176 189 189 204 223 223 226 211 197 184 188 198 198 198 208 217 214 207 203 204 205 200 195 192 190 190 192 191 187 179 175 176 181 182 179 178 179 169 156 153 150 142 137 138 138 136 142 147 150 158 160 166 190 188 185 183 192
3 355 347 338 5 325 163 162 189 204 210 196 173 158 154 178 209 210 204 200 206 211 209 207 208 207 206 199 196 195 191 189 183 180 178 176 176 174 173 169 168 163 156 149 147 143 140 142 140 137 132 127 135 140 148 157 163 163 172 182 176 183 192
8 4 353 342 337 331 332 139 172 173 175 206 193 165 170 172 184 193 204 241 242 234 221 212 203 194 189 190 195 194 192 185 178 174 173 170 167 166 159 160 156 152 151 149 146 145 143 140 135 134 138 142 141 142 145 150 147 167 163 166 179 184 191
18 6 3 360 346 344 339 12 104 81 52 28 13 5 7 52 151 218 299 315 359 3 359 335 325 168 178 181 181 181 180 174 172 170 165 162 158 154 154 151 147 142 145 139 140 142 141 145 145 142 143 142 150 154 150 144 140 145 164 167 178 181 185
18 13 13 16 6 356 14 18 29 37 36 29 23 25 28 23 56 97 86 75 104 112 105 111 114 217 195 180 172 171 165 162 159 155 152 150 153 153 155 154 152 148 151 146 145 144 141 144 141 141 142 144 149 150 139 121 109 105 107 141 171 175 167
24 25 23 27 16 21 40 45 44 39 37 32 17 19 23 47 55 62 71 87 75 83 113 128 147 159 171 175 168 161 157 152 151 145 143 140 141 144 145 146 144 145 145 143 138 137 139 140 145 145 145 143 138 128 133 133 136 135 130 119 139 146 145
23 21 25 40 44 52 55 58 61 58 54 43 32 28 26 27 33 39 47 38 71 114 104 117 136 144 148 155 161 162 159 155 150 145 142 142 141 140 139 144 146 132 126 139 149 145 146 147 150 150 146 140 139 147 143 153 158 164 160 155 148 148 153
20 30 25 33 41 57 65 70 71 67 66 63 55 53 52 40 30 34 46 45 34 51 122 134 141 143 147 144 151 160 157 152 152 148 139 125 100 74 95 128 117 112 114 14 135 139 138 137 133 142 148 149 156 152 163 165 189 200 168 157 158 153 153
16 22 33 31 39 61 83 86 85 71 69 68 68 76 73 70 69 58 57 55 59 60 60 61 66 78 72 58 90 147 153 146 138 135 133 127 123 115 82 48 64 87 132 139 46 93 132 138 148 157 151 154 156 151 161 188 195 133 144 149 157 161 158
32 23 34 35 37 30 32 30 87 124 147 191 267 124 136 138 145 140 125 107 100 89 62 28 78 95 107 98 93 59 19 83 109 116 115 118 119 113 109 98 59 52 52 60 72 89 88 103 130 141 145 142 140 37 66 108 120 141 143 146 155 159 153
42 42 36 37 41 31 27 22 15 1 327 290 75 323 325 2 37 56 119 131 116 101 95 78 50 54 59 106 111 94 86 53 60 78 90 75 82 96 112 113 108 73 42 45 64 69 74 80 115 141 144 149 144 135 47 113 134 137 144 149 154 160 156